This is the latest recevied weather packets stored in our database for station/object SP3WRO-13. If no packets are shown the sender has not sent any weather packets the latest 10 day(s).
| Time | Temp. | Humidity | Pressure | Rain* | Wind** | Luminosity | Snow |
|---|---|---|---|---|---|---|---|
| 1777222704 | 11.67° C | 23% | 1019.6 hPa | - | - | 39 W/m² | - |
| 1777221803 | 11.67° C | 23% | 1019.5 hPa | - | - | 43 W/m² | - |
| 1777220903 | 12.22° C | 22% | 1019.5 hPa | - | - | 50 W/m² | - |
| 1777220003 | 12.22° C | 21% | 1019.5 hPa | - | - | 47 W/m² | - |
| 1777219103 | 12.22° C | 20% | 1019.5 hPa | - | - | 100 W/m² | - |
| 1777218203 | 12.22° C | 22% | 1019.4 hPa | - | - | 102 W/m² | - |
| 1777217303 | 12.22° C | 23% | 1019.5 hPa | - | - | 134 W/m² | - |
| 1777216403 | 12.78° C | 22% | 1019.5 hPa | - | - | 267 W/m² | - |
| 1777215503 | 12.78° C | 22% | 1019.4 hPa | - | - | 313 W/m² | - |
| 1777214603 | 12.78° C | 22% | 1019.3 hPa | - | - | 358 W/m² | - |
| 1777213703 | 12.78° C | 24% | 1019.2 hPa | - | - | 400 W/m² | - |
| 1777212803 | 12.78° C | 21% | 1019.2 hPa | - | - | 441 W/m² | - |
| 1777211903 | 12.78° C | 21% | 1019.2 hPa | - | - | 482 W/m² | - |
| 1777211003 | 12.78° C | 23% | 1019.1 hPa | - | - | 519 W/m² | - |
| 1777210102 | 12.78° C | 23% | 1019.1 hPa | - | - | 554 W/m² | - |
| 1777209202 | 12.78° C | 24% | 1019.2 hPa | - | - | 580 W/m² | - |
| 1777208302 | 12.78° C | 25% | 1019.3 hPa | - | - | 605 W/m² | - |
| 1777207402 | 11.67° C | 25% | 1019.1 hPa | - | - | 630 W/m² | - |
| 1777206502 | 12.78° C | 26% | 1019.2 hPa | - | - | 663 W/m² | - |
| 1777205602 | 11.67° C | 24% | 1019.3 hPa | - | - | 685 W/m² | - |
| 1777204702 | 11.67° C | 25% | 1019.3 hPa | - | - | 702 W/m² | - |
| 1777203802 | 12.22° C | 25% | 1019.3 hPa | - | - | 712 W/m² | - |
| 1777202902 | 12.22° C | 25% | 1019.4 hPa | - | - | 722 W/m² | - |
| 1777202001 | 11.11° C | 27% | 1019.4 hPa | - | - | 736 W/m² | - |
| 1777201101 | 11.11° C | 30% | 1019.3 hPa | - | - | 735 W/m² | - |
* Rain since midnight (hover to see other rain measurements)
** Current wind speed in m/s (hover to see current wind gust speed)